AirNav   Air Wisconsin pilot careers
 
 624 users online  

8D1 New Holstein Municipal Airport
New Holstein, Wisconsin, USA

GOING TO NEW HOLSTEIN?


FAA INFORMATION EFFECTIVE 13 SEPTEMBER 2018

Location

FAA Identifier: 8D1
Lat/Long: 43-56-38.7765N / 088-06-53.4301W
43-56.646275N / 088-06.890502W
43.9441046 / -88.1148417
(estimated)
Elevation: 992.2 ft. / 302.4 m (surveyed)
Variation: 03W (2010)
From city: 1 mile W of NEW HOLSTEIN, WI
Time zone: UTC -5 (UTC -6 during Standard Time)
Zip code: 53061

Airport Operations

Airport use: Open to the public
Activation date: 09/1958
Control tower: no
ARTCC: CHICAGO CENTER
FSS: GREEN BAY FLIGHT SERVICE STATION
NOTAMs facility: GRB (NOTAM-D service available)
Attendance: UNATNDD
Pattern altitude: 1792.2 ft. MSL
Wind indicator: lighted
Segmented circle: yes
Lights: ACTVT REIL RWY 14 & 32; PAPI RWY 14 & 32; MIRL RWY 14/32 - CTAF.
Beacon: white-green (lighted land airport)
Operates sunset to sunrise.

Airport Communications

CTAF/UNICOM: 123.0
MILWAUKEE APPROACH: 127.0
MILWAUKEE DEPARTURE: 127.0
WX ASOS at SBM (15 nm SE): 110.0 (920-467-0744)
WX ASOS at FLD (19 nm SW): 134.0 (920-922-4444)
WX ASOS at OSH (19 nm W): PHONE 920-426-1644

Nearby radio navigation aids

VOR radial/distance  VOR name  Freq  Var
FAHr314/15.6FALLS VOR/DME110.0002W
OSHr096/19.2OSHKOSH VORTAC111.8002E
MTWr241/21.8MANITOWOC VOR/DME111.0002W
BJBr002/(31.3)WEST BEND VOR109.8001W
GRBr174/36.8GREEN BAY VORTAC115.5001E

Airport Services

Fuel available: 100LL
24 HR SELF SERVICE FUEL WITH CREDIT CARD. ATTENDED 0800-1500 FRI-SUN.
Parking: hangars and tiedowns
Airframe service: MAJOR
Powerplant service: MAJOR

Runway Information

Runway 14/32

Dimensions: 3600 x 75 ft. / 1097 x 23 m
Surface: asphalt, in excellent condition
Weight bearing capacity: 
Single wheel: 20.0
Runway edge lights: medium intensity
RUNWAY 14  RUNWAY 32
Latitude: 43-56.885717N43-56.423222N
Longitude: 088-07.064270W088-06.553188W
Elevation: 976.6 ft.976.5 ft.
Gradient: 0.1%0.1%
Traffic pattern: leftleft
Runway heading: 144 magnetic, 141 true324 magnetic, 321 true
Markings: nonprecision, in good conditionnonprecision, in good condition
Visual slope indicator: 2-light PAPI on left (3.20 degrees glide path)2-light PAPI on left (3.00 degrees glide path)
RWY 32 PAPI UNUSBL BYD 6 DEGS LEFT OF CNTRLN.
Runway end identifier lights: yesyes
Touchdown point: yes, no lightsyes, no lights
Obstructions: 19 ft. road, 660 ft. from runway, 170 ft. left of centerline, 24:1 slope to clear5 ft. gnd, 350 ft. from runway, 125 ft. right of centerline, 30:1 slope to clear
+7' TERRAIN 140' RIGHT OF CNTRLN.

Runway 4/22

Dimensions: 2951 x 250 ft. / 899 x 76 m
Surface: turf, in fair condition
Gradient: SW.
RUNWAY 4  RUNWAY 22
Latitude: 43-56.454092N43-56.818463N
Longitude: 088-07.212500W088-06.768013W
Elevation: 992.1 ft.973.6 ft.
Gradient: 0.6%0.6% UP
Traffic pattern: leftright
Runway heading: 044 magnetic, 041 true224 magnetic, 221 true
Markings: nonenone
Runway end identifier lights: nono
Touchdown point: yes, no lightsyes, no lights
Obstructions: 71 ft. tree, 1430 ft. from runway, 20:1 slope to clear78 ft. trees, 1400 ft. from runway, 250 ft. right of centerline, 18:1 slope to clear

Airport Ownership and Management from official FAA records

Ownership: Publicly-owned
Owner: CITY OF NEW HOLSTEIN
2110 WASHINGTON ST
NEW HOLSTEIN, WI 53061
Phone 920-898-5766
Manager: CASSANDRA LAGENFELD
2110 WISCONSIN ST
NEW HOLSTEIN, WI 53061
Phone 920-898-5766
EMAIL ADDRESS: CLANGENFELD@WPPIENERGY.ORG (ALL LOWER CASE)

Airport Operational Statistics

Aircraft based on the field: 21
Single engine airplanes: 19
Ultralights: 2
    
Aircraft operations: avg 22/day *
51% local general aviation
44% transient general aviation
3% military
3% air taxi
* for 12-month period ending 25 August 2017

Additional Remarks

NUMEROUS BIRDS INVOF ARPT.
RY 04/22 CLSD NOV 1 THRU MAY 1.
PCL ALL OUT OF SERVICE EXC STEP 1.

Instrument Procedures

NOTE: All procedures below are presented as PDF files. If you need a reader for these files, you should download the free Adobe Reader.

NOT FOR NAVIGATION. Please procure official charts for flight.
FAA instrument procedures published for use from 13 September 2018 at 0901Z to 11 October 2018 at 0900Z.

 
IAPs - Instrument Approach Procedures
RNAV (GPS) RWY 14 **CHANGED**   download (221KB)
RNAV (GPS) RWY 32 **CHANGED**   download (223KB)
VOR/DME-A **CHANGED**   download (166KB)
NOTE: Special Take-Off Minimums/Departure Procedures apply   download (201KB)

Other nearby airports with instrument procedures:

KSBM - Sheboygan County Memorial Airport (15 nm SE)
KFLD - Fond Du Lac County Airport (19 nm SW)
KOSH - Wittman Regional Airport (19 nm W)
KMTW - Manitowoc County Airport (22 nm NE)
KATW - Appleton International Airport (26 nm NW)
 
Loc | Ops | Rwys | IFR | FBO | Links
Com | Nav | Svcs | Stats | Notes


 
Area around 8D1 (New Holstein Municipal Airport)
 
Road maps at: MapQuest Bing Google
 
Aerial photo
WARNING: Photo may not be current or correct
Aerial photo of 8D1 (New Holstein Municipal Airport)
Do you have a better or more recent aerial photo of New Holstein Municipal Airport that you would like to share? If so, please send us your photo.

 
Sectional chart

 
Airport distance calculator
Flying to New Holstein Municipal Airport? Find the distance to fly.

From to 8D1

Sunrise and sunset
Times for 24-Sep-2018
 Local
(UTC-5)
 Zulu
(UTC)
Morning civil twilight06:1411:14
Sunrise06:4311:43
Sunset18:4623:46
Evening civil twilight19:1500:15

Current date and time
Zulu (UTC)  25-Sep-2018 04:55:53
Local (UTC-5)  24-Sep-2018 23:55:53
 
METAR
KSBM 
15nm SE 
250353Z AUTO 19009KT 5SM BR OVC007 18/18 A2992 RMK AO2 SLP130 T01830178
KOSH 
19nm W 
250436Z AUTO 19007KT 5SM BR BKN009 OVC055 17/17 A2989 RMK AO2 T01720167
KFLD 
19nm SW 
250433Z AUTO 18006KT 6SM BR SCT010 BKN050 18/17 A2990 RMK AO2 T01780167
KMTW 
22nm NE 
250411Z AUTO 20008KT 3SM -RA BR OVC004 18/18 A2991 RMK AO2 P0000
KATW 
25nm NW 
250435Z AUTO 20006KT 7SM OVC010 17/16 A2989 RMK AO2
TAF
KMTW 
22nm NE 
250251Z 2503/2524 16008KT 5SM BR BKN010 TEMPO 2503/2507 BKN003 FM250900 22004KT P6SM BKN015 FM251600 20007KT P6SM BKN025 FM251900 19010G18KT 6SM -SHRA OVC035
NOTAMs
Click for the latest NOTAMs
NOTAMs are issued by the DoD/FAA and will open in a separate window not controlled by AirNav.

 

 
 

FBO, Fuel Providers, and Aircraft Ground Support

  
 Business Name 
 
 Contact 
 
 Services / Description 
 
Fuel Prices
 
Comments
  
Welch's Aviation Service, LLC 920-219-0015
920-898-5766
Airport management, Aviation fuel

More info about Welch's Aviation Service, LLC
100LL
SS $4.89 
 Updated 07-Sep-2018
 
   2 read write
SS=Self service
Update Fuel Prices
 

Would you like to see your business listed on this page?

 If your business provides an interesting product or service to pilots, flight crews, aircraft, or users of the New Holstein Municipal Airport, you should consider listing it here.  To start the listing process, click on the button below
 
Add a business
 

Other Pages about New Holstein Municipal Airport

www.ci.newholstein.wi.gov/city-departments.html?deptID=16
Page from the Wisconsin airport directory (PDF)
 
Update a link
 
Copyright © AirNav, LLC. All rights reserved. Privacy Policy  Contact